This demonstration page uses our WeatherBlox Daily Observations layout. Learn more.

Left ArrowRight Arrow

39.12711, -84.51439

Hourly Observations for October 3, 2020

Temp ( °F °C ) Dew Point ( °F °C ) Humidity (%) Winds ( mph kmh ) Pressure ( in mb ) Visibility ( mi km ) Precip ( " mm )
12:53 am 00:53 Cloudy 50 10 47 8.3 89 89 Calm 30.19 1023 10 16 0.00 0.00
1:53 am 01:53 Cloudy 50 10 47 8.3 89 89 NE 3 6 30.19 1022 10 16 0.00 0.00
2:53 am 02:53 Cloudy 46 7.8 44 6.7 93 93 ENE 3 6 30.20 1023 9 14 0.00 0.00
3:33 am 03:33 Mostly Clear with Mist and Fog 45 7.2 44 6.7 97 97 Calm 30.21 1023 1 2 0.00 0.00
3:42 am 03:42 Clear with Mist and Fog 46 7.8 45 7.2 96 96 Calm 30.21 1023 3 5 0.00 0.00
3:45 am 03:45 Mostly Clear with Mist and Fog 44 6.7 43 6.1 96 96 Calm 30.21 1023 2 3 0.00 0.00
3:53 am 03:53 Partly Cloudy with Mist and Fog 43 6.1 42 5.6 97 97 Calm 30.20 1023 2 3 0.00 0.00
4:01 am 04:01 Partly Cloudy 44 6.7 43 6.1 96 96 Calm 30.21 1023 9 14 0.00 0.00
4:53 am 04:53 Cloudy 45 7.2 44 6.7 97 97 Calm 30.20 1023 10 16 0.00 0.00
5:53 am 05:53 Cloudy 47 8.3 45 7.2 93 93 Calm 30.21 1023 10 16 0.00 0.00
6:53 am 06:53 Cloudy 47 8.3 44 6.7 90 90 Calm 30.23 1024 10 16 0.00 0.00
7:53 am 07:53 Mostly Cloudy 47 8.3 45 7.2 93 93 NNE 3 6 30.24 1024 10 16 0.00 0.00
8:53 am 08:53 Partly Cloudy 48 8.9 45 7.2 89 89 ENE 3 6 30.25 1024 10 16 0.00 0.00
9:53 am 09:53 Sunny 52 11.1 44 6.7 75 75 Calm 30.25 1024 10 16 0.00 0.00
10:53 am 10:53 Sunny 57 13.9 46 7.8 67 67 Calm 30.24 1024 10 16 0.00 0.00
11:53 am 11:53 Sunny 62 16.7 45 7.2 54 54 VRB 6 9 30.22 1023 10 16 0.00 0.00
12:53 pm 12:53 Mostly Cloudy 63 17.2 42 5.6 47 47 S 6 9 30.21 1023 10 16 0.00 0.00
1:53 pm 13:53 Cloudy 64 17.8 40 4.4 41 41 S 12 19 30.20 1023 10 16 0.00 0.00
2:53 pm 14:53 Cloudy 65 18.3 40 4.4 40 40 S 10 17 30.18 1022 10 16 0.00 0.00
3:53 pm 15:53 Mostly Cloudy 66 18.9 40 4.4 39 39 SSE 7 11 30.16 1021 10 16 0.00 0.00
4:53 pm 16:53 Mostly Cloudy 63 17.2 39 3.9 41 41 SSW 9 15 30.16 1021 10 16 0.00 0.00
5:53 pm 17:53 Mostly Cloudy 62 16.7 43 6.1 50 50 S 6 9 30.15 1021 10 16 0.00 0.00
6:53 pm 18:53 Cloudy 59 15 51 10.6 75 75 Calm 30.16 1021 10 16 0.00 0.00
7:53 pm 19:53 Cloudy 57 13.9 48 8.9 72 72 Calm 30.16 1021 10 16 0.00 0.00
8:53 pm 20:53 Mostly Cloudy 54 12.2 48 8.9 80 80 Calm 30.16 1022 10 16 0.00 0.00
9:53 pm 21:53 Cloudy 53 11.7 49 9.4 86 86 Calm 30.17 1022 10 16 0.00 0.00
10:53 pm 22:53 Cloudy 54 12.2 49 9.4 83 83 Calm 30.18 1022 10 16 0.00 0.00
11:53 pm 23:53 Cloudy with Light Rain 52 11.1 49 9.4 89 89 Calm 30.18 1022 10 16 0.00 0.00

Powered by AerisWeather